Regional Weather Roundup
Issued by NWS

Home | Current Version | Previous Version | Text Only | Print | Product List | Glossary Off
Versions: 1 2 3 4 5 6 7 8 9 10 11 12 13 14 15 16 17 18 19 20 21 22 23 24 25 26 27 28 29 30 31 32 33 34 35 36 37 38 39 40 41 42 43 44 45 46 47 48 49 50

000
ASUS43 KIND 070709
RWRIN

WEATHER ROUNDUP FOR INDIANA
NATIONAL WEATHER SERVICE INDIANAPOLIS IN
300 AM EDT TUE JUL 07 2015

NOTE: "FAIR" INDICATES FEW OR NO CLOUDS BELOW 12,000 FEET WITH NO
SIGNIFICANT WEATHER AND/OR OBSTRUCTIONS TO VISIBILITY.

* - STATION DOES NOT REPORT WEATHER SUCH AS PRECIPITATION OR FOG.

+ - STATION NOT QUALITY CONTROLLED BY THE NATIONAL WEATHER SERVICE.
    USE DATA WITH CAUTION...ESPECIALLY DEWPOINT AND RELATIVE
    HUMIDITY OBSERVATIONS.

INZ001>003-010>013-019-020-070800-
NORTHWEST INDIANA

CITY           SKY/WX    TMP DP  RH WIND       PRES   REMARKS
GARY /AIRPORT/ CLOUDY   N/A N/A N/A SW5       29.86S
KNOX *+        CLOUDY    75  70  83 S12       29.86F
LA PORTE +     CLOUDY    77  74  89 SW9       29.88R
MICHIGAN CITY+ CLOUDY    73  73 100 SW3       29.86S
MONTICELLO +   CLOUDY    75  73  91 S12       29.88F
RENSSELAER +   CLOUDY    75  73  94 S9G16     29.88R
VALPARAISO     CLOUDY    75  71  87 SW10      29.87S

$$

LMZ046-743>745-070800-
SOUTHERN LAKE MICHIGAN

STATION/POSITION TIME  TEMP    WIND        PRES    WAVE
                       AIR SEA DIR/SP/G            HT
                 (UTC) (F)     (DEG/KT/KT) (MB)    (FT)
BURNS HARBOR     0700   72     260/  7/ 11 1011.5S
MICHIGAN CITY    0700   71     240/ 10/ 11   N/A
5NW MICH CITY    0700   69 68  300/  6/  8   N/A     1

$$

INZ004-005-014>016-021>024-070800-
NORTH CENTRAL INDIANA

CITY           SKY/WX    TMP DP  RH WIND       PRES   REMARKS
GOSHEN         CLOUDY    76  70  82 SW12      29.88F
LOGANSPORT +   CLOUDY    73  68  83 S7        29.91S
PERU/GRISSOM   CLOUDY    76  72  88 SW12      29.90S
ROCHESTER +    CLOUDY    77  72  83 S7        29.90S
SOUTH BEND     CLOUDY    78  71  79 SW13      29.87F
WARSAW +         N/A     77  70  78 SW6       29.89F

$$

INZ006>009-017-018-025>027-070800-
NORTHEAST INDIANA

CITY           SKY/WX    TMP DP  RH WIND       PRES   REMARKS
ANGOLA *+        N/A     75  70  83 SW8       29.90F
AUBURN +       CLOUDY    75  68  78 SW6       29.91F
FORT WAYNE     CLOUDY    75  70  84 S8        29.92S
HUNTINGTON +   CLOUDY    75  71  87 S5        29.91F

$$

INZ028-029-035-036-043>045-051>053-070800-
WEST CENTRAL INDIANA

CITY           SKY/WX    TMP DP  RH WIND       PRES   REMARKS
CRAWFORDSVL +  CLOUDY    73  70  88 S8        29.92S
GREENCASTLE +  MOCLDY    73  68  83 S8        29.94S
LAFAYETTE      CLOUDY    75  71  87 S10G16    29.89S
TERRE HAUTE    PTCLDY    76  73  91 S12G20    29.92F

$$

INZ030>032-037>040-046>048-054>057-064-065-070800-
CENTRAL INDIANA

CITY           SKY/WX    TMP DP  RH WIND       PRES   REMARKS
CP ATTERBURY + PTCLDY    73  70  88 S7        29.96F
FRANKFORT +    CLOUDY    76  76 100 S9G17     29.93S
GREENWOOD *+   MOCLDY    75  70  83 S8        29.95F
INDIANAPOLIS   CLOUDY    76  70  82 S13       29.92F
-EAGLE CREEK   CLOUDY    77  71  82 S10       29.92F
KOKOMO *+      CLOUDY    77  70  78 SW13G20   29.91S
MARION +       CLOUDY    73  70  89 S9        29.93F
MT COMFORT *+  CLOUDY    73 N/A N/A S7        29.95F
SHELBYVILLE    MOCLDY    75  71  87 S10       29.95F
ZIONSVILLE +   CLOUDY    77  70  78 S14G20    29.94S

$$

INZ033-034-041-042-049-050-058-059-070800-
EAST CENTRAL INDIANA

CITY           SKY/WX    TMP DP  RH WIND       PRES   REMARKS
MUNCIE         CLOUDY    77  70  79 SW9       29.94S

$$

INZ060-061-067>069-081>083-085>088-070800-
SOUTHWEST INDIANA

CITY           SKY/WX    TMP DP  RH WIND       PRES   REMARKS
EVANSVILLE     MOCLDY    78  73  84 SW15      29.97F
HUNTINGBURG *+ PTCLDY    75  72  88 S12       29.99S
WASHINGTON +   PTCLDY    76  72  87 S9        29.95S

$$

INZ062-063-066-070>080-084-089>092-070800-
SOUTH CENTRAL AND SOUTHEAST INDIANA

CITY           SKY/WX    TMP DP  RH WIND       PRES   REMARKS
BLOOMINGTON    PTCLDY    76  72  87 SW7       29.96F
MADISON *+     PTCLDY    72  68  88 S3        30.02S
NORTH VERNON + MOCLDY    73  73 100 S6        29.98F
SEYMOUR +      PTCLDY    75  72  88 S6        29.97F

$$



USA.gov is the U.S. government's official web portal to all federal, state and local government web resources and services.